EW5819 Weather Reports


Display with metric or nautical units.
time (UTC)temp
F
wind
direction
speed
MPH
gust
MPH
rain 1hr
in
rain 24hr
in
rain mn
in
humidity
%
barometer
mb
20260504002538 61 114 0.0 0.0 0.00 0.00 0.00 51 1015.2
20260504002044 62 115 0.0 0.0 0.00 0.00 0.00 50 1015.2
20260504001551 62 114 0.0 0.0 0.00 0.00 0.00 49 1015.2
20260504001058 63 115 0.0 1.0 0.00 0.00 0.00 47 1015.1
20260504000605 64 115 0.0 1.0 0.00 0.00 0.00 47 1015.1
20260504000139 64 113 0.0 1.0 0.00 0.00 0.00 45 1015.1
20260503235617 65 113 0.0 2.0 0.00 0.00 0.00 44 1015.1
20260503235123 66 185 0.0 2.0 0.00 0.00 0.00 43 1015.1
20260503234505 67 213 0.0 1.0 0.00 0.00 0.00 41 1015.2
20260503234013 68 144 0.0 1.0 0.00 0.00 0.00 39 1015.3
20260503233540 69 236 0.0 1.0 0.00 0.00 0.00 39 1015.3
20260503233046 68 131 0.0 2.0 0.00 0.00 0.00 39 1015.3
20260503232556 69 218 0.0 2.0 0.00 0.00 0.00 38 1015.4
20260503232101 68 120 0.0 2.0 0.00 0.00 0.00 38 1015.4
20260503231605 68 278 0.0 4.0 0.00 0.00 0.00 37 1015.4
20260503231114 68 222 0.0 5.0 0.00 0.00 0.00 37 1015.4
20260503230639 68 146 1.0 5.0 0.00 0.00 0.00 37 1015.5
20260503230141 69 99 1.0 3.0 0.00 0.00 0.00 37 1015.5
20260503225643 69 200 1.0 3.0 0.00 0.00 0.00 37 1015.6
20260503225055 69 162 1.0 5.0 0.00 0.00 0.00 38 1015.6
20260503224600 69 282 0.0 4.0 0.00 0.00 0.00 38 1015.7
20260503224108 69 277 1.0 4.0 0.00 0.00 0.00 38 1015.7
20260503223559 69 124 1.0 4.0 0.00 0.00 0.00 37 1015.7
20260503223103 69 131 0.0 4.0 0.00 0.00 0.00 36 1015.7
20260503222607 69 173 0.0 5.0 0.00 0.00 0.00 38 1015.7
20260503222116 69 283 1.0 5.0 0.00 0.00 0.00 36 1015.8
20260503221618 69 149 1.0 3.0 0.00 0.00 0.00 36 1015.8
20260503221002 69 37 0.0 7.0 0.00 0.00 0.00 38 1015.8
20260503220509 69 290 1.0 7.0 0.00 0.00 0.00 38 1015.8
20260503220036 69 316 1.0 6.0 0.00 0.00 0.00 38 1015.9
20260503215517 68 266 0.0 4.0 0.00 0.00 0.00 38 1016.0
20260503215046 68 282 2.0 4.0 0.00 0.00 0.00 35 1016.0
20260503214555 69 304 2.0 5.0 0.00 0.00 0.00 41 1016.1
20260503214105 68 329 2.0 5.0 0.00 0.00 0.00 37 1016.1
20260503213610 68 122 1.0 9.0 0.00 0.00 0.00 36 1016.1
20260503213114 68 337 2.0 9.0 0.00 0.00 0.00 37 1016.2
20260503212616 68 284 2.0 8.0 0.00 0.00 0.00 36 1016.3
20260503212107 69 198 2.0 6.0 0.00 0.00 0.00 38 1016.3
20260503211640 68 137 1.0 6.0 0.00 0.00 0.00 35 1016.4
20260503211003 68 210 2.0 7.0 0.00 0.00 0.00 41 1016.5
20260503210508 68 327 2.0 6.0 0.00 0.00 0.00 35 1016.5
20260503210014 68 123 1.0 7.0 0.00 0.00 0.00 38 1016.6
20260503205544 69 295 2.0 7.0 0.00 0.00 0.00 33 1016.6
20260503205026 69 193 1.0 8.0 0.00 0.00 0.00 35 1016.7
20260503204556 69 216 0.0 5.0 0.00 0.00 0.00 35 1016.7
20260503204103 69 9 0.0 5.0 0.00 0.00 0.00 37 1016.8
20260503203608 69 267 1.0 5.0 0.00 0.00 0.00 36 1016.9
20260503203121 69 160 1.0 6.0 0.00 0.00 0.00 35 1017.0
20260503202618 68 243 1.0 6.0 0.00 0.00 0.00 37 1017.1
20260503202147 68 140 1.0 8.0 0.00 0.00 0.00 39 1017.1
20260503201509 68 262 3.0 8.0 0.00 0.00 0.00 36 1017.2
20260503201043 68 277 1.0 7.0 0.00 0.00 0.00 40 1017.4
20260503200511 68 330 2.0 7.0 0.00 0.00 0.00 38 1017.4
20260503200015 68 309 1.0 6.0 0.00 0.00 0.00 37 1017.5
20260503195518 68 310 1.0 5.0 0.00 0.00 0.00 35 1017.5
20260503195025 68 135 1.0 5.0 0.00 0.00 0.00 36 1017.7
20260503194555 67 326 0.0 6.0 0.00 0.00 0.00 41 1017.7
20260503194059 66 277 0.0 6.0 0.00 0.00 0.00 37 1017.8
20260503193607 66 336 2.0 5.0 0.00 0.00 0.00 37 1017.9
20260503193112 66 351 1.0 7.0 0.00 0.00 0.00 35 1017.8
20260503192616 66 129 3.0 7.0 0.00 0.00 0.00 37 1017.9
20260503192140 65 107 1.0 6.0 0.00 0.00 0.00 38 1017.9
20260503191502 65 340 2.0 5.0 0.00 0.00 0.00 39 1018.0
20260503191007 66 290 1.0 5.0 0.00 0.00 0.00 38 1018.1
20260503190535 66 247 1.0 7.0 0.00 0.00 0.00 35 1018.1
20260503190041 66 333 3.0 7.0 0.00 0.00 0.00 34 1018.2
20260503185525 67 139 1.0 3.0 0.00 0.00 0.00 39 1018.2
20260503185052 66 178 0.0 4.0 0.00 0.00 0.00 40 1018.2
20260503184619 65 137 2.0 6.0 0.00 0.00 0.00 37 1018.4
20260503184105 65 297 2.0 6.0 0.00 0.00 0.00 36 1018.5
20260503183612 65 291 1.0 6.0 0.00 0.00 0.00 44 1018.6
20260503183117 64 232 0.0 4.0 0.00 0.00 0.00 44 1018.5
20260503182515 64 339 2.0 4.0 0.00 0.00 0.00 38 1018.7
20260503182004 64 330 2.0 5.0 0.00 0.00 0.00 40 1018.7
20260503181509 64 91 1.0 6.0 0.00 0.00 0.00 42 1018.9
20260503181038 64 148 1.0 8.0 0.00 0.00 0.00 39 1018.9
20260503180544 64 302 2.0 8.0 0.00 0.00 0.00 42 1018.9
20260503180054 64 137 2.0 5.0 0.00 0.00 0.00 38 1018.9
20260503175559 64 134 2.0 4.0 0.00 0.00 0.00 44 1018.9
20260503175107 64 193 0.0 5.0 0.00 0.00 0.00 37 1019.0
20260503174613 63 169 1.0 6.0 0.00 0.00 0.00 43 1019.1
20260503174118 64 254 1.0 6.0 0.00 0.00 0.00 42 1019.1
20260503173623 64 306 1.0 5.0 0.00 0.00 0.00 46 1019.3
20260503173006 63 3 1.0 3.0 0.00 0.00 0.00 44 1019.3
20260503172512 63 18 1.0 3.0 0.00 0.00 0.00 43 1019.4
20260503172016 63 283 1.0 3.0 0.00 0.00 0.00 41 1019.4
20260503171607 63 18 1.0 3.0 0.00 0.00 0.00 42 1019.5
20260503171056 63 83 1.0 4.0 0.00 0.00 0.00 42 1019.6
20260503170600 62 143 1.0 4.0 0.00 0.00 0.00 38 1019.6
20260503170107 62 339 1.0 5.0 0.00 0.00 0.00 39 1019.7
20260503160104 59 309 1.0 4.0 0.00 0.00 0.00 46 1020.3
20260503150612 57 41 1.0 4.0 0.00 0.00 0.00 49 1020.6
20260503150140 57 280 2.0 4.0 0.00 0.00 0.00 51 1020.6
20260503131048 52 79 1.0 2.0 0.00 0.00 0.00 69 1020.5
20260503130553 53 76 0.0 2.0 0.00 0.00 0.00 70 1020.4
20260503110506 38 203 0.0 0.0 0.00 0.00 0.00 94 1019.3
20260503090107 41 226 0.0 0.0 0.00 0.00 0.00 92 1018.2
20260503081517 41 226 0.0 0.0 0.00 0.00 0.00 91 1017.9
20260503081046 41 226 0.0 0.0 0.00 0.00 0.00 91 1017.8
20260503080553 42 226 0.0 0.0 0.00 0.00 0.00 91 1017.8
20260503080108 42 226 0.0 0.0 0.00 0.00 0.00 90 1017.7
20260503072509 43 226 0.0 0.0 0.00 0.00 0.00 89 1017.5
20260503072042 43 226 0.0 0.0 0.00 0.00 0.00 88 1017.4
20260503071557 44 226 0.0 0.0 0.00 0.00 0.00 88 1017.3
20260503071046 44 226 0.0 0.0 0.00 0.00 0.00 87 1017.2
20260503070554 44 226 0.0 0.0 0.00 0.00 0.00 87 1017.2
20260503060118 43 287 0.0 0.0 0.00 0.00 0.00 87 1017.1
20260503055005 44 287 0.0 0.0 0.00 0.00 0.00 86 1017.1
20260503054518 44 288 0.0 0.0 0.00 0.00 0.00 86 1017.1
20260503054014 44 288 0.0 1.0 0.00 0.00 0.00 85 1017.1
20260503053542 45 288 0.0 1.0 0.00 0.00 0.00 84 1017.1
20260503053051 45 288 0.0 1.0 0.00 0.00 0.00 84 1017.0
20260503052558 45 288 0.0 1.0 0.00 0.00 0.00 83 1017.1
20260503052102 45 289 0.0 1.0 0.00 0.00 0.00 82 1017.1
20260503051609 45 289 0.0 0.0 0.00 0.00 0.00 82 1017.0
20260503051115 45 289 0.0 1.0 0.00 0.00 0.00 81 1017.0
20260503050611 45 289 0.0 1.0 0.00 0.00 0.00 81 1017.0
20260503050139 46 289 0.0 0.0 0.00 0.00 0.00 80 1017.0
20260503045503 46 289 0.0 1.0 0.00 0.00 0.00 79 1017.0
20260503045011 46 289 0.0 1.0 0.00 0.00 0.00 79 1017.1
20260503044531 47 289 0.0 0.0 0.00 0.00 0.00 78 1017.0
20260503044023 47 289 0.0 0.0 0.00 0.00 0.00 78 1017.0
20260503043556 47 289 0.0 0.0 0.00 0.00 0.00 77 1016.9
20260503043101 48 289 0.0 0.0 0.00 0.00 0.00 76 1016.9
20260503042610 48 290 0.0 0.0 0.00 0.00 0.00 74 1016.8
20260503042113 48 289 0.0 1.0 0.00 0.00 0.00 74 1016.7
20260503041616 49 289 0.0 1.0 0.00 0.00 0.00 73 1016.7
20260503041002 49 289 0.0 3.0 0.00 0.00 0.00 73 1016.7
20260503040513 50 325 0.0 1.0 0.00 0.00 0.00 73 1016.7
20260503040020 50 345 0.0 1.0 0.00 0.00 0.00 70 1016.7
20260503035550 50 334 0.0 1.0 0.00 0.00 0.00 70 1016.7
20260503035057 51 139 0.0 1.0 0.00 0.00 0.00 70 1016.6
20260503034606 51 139 0.0 1.0 0.00 0.00 0.00 68 1016.6
20260503034134 52 139 0.0 1.0 0.00 0.00 0.00 67 1016.6
20260503033640 52 139 0.0 4.0 0.00 0.00 0.00 67 1016.6
20260503033123 52 111 1.0 5.0 0.00 0.00 0.00 66 1016.4
20260503032509 52 1 1.0 5.0 0.00 0.00 0.00 66 1016.5
20260503032016 53 297 1.0 5.0 0.00 0.00 0.00 66 1016.6
20260503031526 53 325 2.0 10.0 0.00 0.00 0.00 65 1016.5
20260503031051 53 1 3.0 10.0 0.00 0.00 0.00 65 1016.6
20260503030556 53 12 3.0 8.0 0.00 0.00 0.00 65 1016.7
20260503030104 53 307 2.0 7.0 0.00 0.00 0.00 65 1016.6
20260503025609 53 300 4.0 7.0 0.00 0.00 0.00 64 1016.7
20260503025116 54 13 2.0 8.0 0.00 0.00 0.00 62 1016.6
20260503024645 54 335 3.0 8.0 0.00 0.00 0.00 61 1016.5
20260503024011 54 8 3.0 9.0 0.00 0.00 0.00 59 1016.3
20260503023535 55 325 3.0 6.0 0.00 0.00 0.00 57 1016.1
20260503023015 55 342 3.0 7.0 0.00 0.00 0.00 56 1016.0
20260503022545 55 340 1.0 7.0 0.00 0.00 0.00 56 1016.0
20260503022055 54 305 1.0 5.0 0.00 0.00 0.00 56 1015.9
20260503021603 53 1 1.0 5.0 0.00 0.00 0.00 59 1015.8
20260503021059 53 290 0.0 1.0 0.00 0.00 0.00 63 1015.8
20260503020609 53 288 0.0 1.0 0.00 0.00 0.00 62 1015.8
20260503020134 53 288 0.0 1.0 0.00 0.00 0.00 62 1015.7
20260503015638 53 288 0.0 1.0 0.00 0.00 0.00 63 1015.7
20260503015144 53 299 0.0 1.0 0.00 0.00 0.00 61 1015.5
20260503014505 53 299 0.0 1.0 0.00 0.00 0.00 60 1015.4
20260503014007 52 354 0.0 0.0 0.00 0.00 0.00 62 1015.2
20260503013516 52 354 0.0 1.0 0.00 0.00 0.00 60 1015.2
20260503013023 52 354 0.0 1.0 0.00 0.00 0.00 61 1015.1
20260503012550 52 354 0.0 1.0 0.00 0.00 0.00 61 1015.0
20260503012056 52 354 0.0 1.0 0.00 0.00 0.00 59 1015.0
20260503011626 53 354 0.0 1.0 0.00 0.00 0.00 59 1014.9
20260503011114 53 354 0.0 1.0 0.00 0.00 0.00 59 1014.9
20260503010616 54 354 0.0 1.0 0.00 0.00 0.00 56 1014.7
20260503010002 54 354 0.0 1.0 0.00 0.00 0.00 55 1014.6
20260503005510 54 354 0.0 2.0 0.00 0.00 0.00 54 1014.6
20260503005016 54 354 0.0 2.0 0.00 0.00 0.00 54 1014.6
20260503004548 54 314 1.0 4.0 0.00 0.00 0.00 54 1014.5
20260503004054 54 309 1.0 4.0 0.00 0.00 0.00 54 1014.5
20260503003558 55 354 0.0 0.0 0.00 0.00 0.00 53 1014.3
20260503003105 55 354 0.0 0.0 0.00 0.00 0.00 52 1014.3
20260503002611 56 354 0.0 0.0 0.00 0.00 0.00 51 1014.2